{"data":{"norad_id":63967,"epoch":"2026-05-25T03:36:00.177984Z","epoch_age_seconds":52320,"freshness":"FRESH","line1":"1 63967U 25099R   26145.15000206  .00019412  00000+0  71318-3 0  9997","line2":"2 63967  43.0025 104.0847 0001586 261.1427  98.9245 15.27575623 59031","mean_motion":15.27575623,"eccentricity":0.0001586,"inclination_deg":43.0025,"raan_deg":104.0847,"arg_perigee_deg":261.1427,"mean_anomaly_deg":98.9245,"bstar":0.00071318,"rev_number":5903,"period_min":94.267018818485,"perigee_km":481.97401619007,"apogee_km":484.15038857706,"semimajor_km":6861.1992023836,"source":"CELESTRAK","updated_at":"2026-05-25T13:38:20.213969Z"}}